SHT22B EGLL-EGJB

Flight info

Callsign SHT22B
Flight time 0h 35m
Altitude 20000
Route GASGU N514 EVTES/N0366F190 N621 SAM/N0361F180 N63 LELNA
Aircraft A320/M-SDE3FGHIRWY/LB1

Departure

Time 2026-05-08 13:23
Airport London Heathrow Airport (EGLL)

Arrival

Time 2026-05-08 13:58
Airport Guernsey Airport (EGJB)
Time Latitude Longitude Altitude Speed Heading
2026-05-08 12:51 51.47187 -0.48596 92 ft 0 kts 270°
2026-05-08 13:15 51.47187 -0.48586 92 ft 2 kts 270°
2026-05-08 13:15 51.47187 -0.48562 92 ft 2 kts 270°
2026-05-08 13:15 51.47187 -0.48539 92 ft 2 kts 270°
2026-05-08 13:15 51.47187 -0.48523 92 ft 1 kts 270°
2026-05-08 13:16 51.47190 -0.48500 92 ft 2 kts 240°
2026-05-08 13:16 51.47200 -0.48481 92 ft 2 kts 213°
2026-05-08 13:16 51.47213 -0.48472 92 ft 1 kts 186°
2026-05-08 13:16 51.47220 -0.48472 92 ft 1 kts 176°
2026-05-08 13:17 51.47223 -0.48472 92 ft 0 kts 179°
2026-05-08 13:19 51.47218 -0.48472 92 ft 4 kts 180°
2026-05-08 13:19 51.47165 -0.48472 92 ft 11 kts 181°
2026-05-08 13:19 51.47057 -0.48472 92 ft 16 kts 179°
2026-05-08 13:19 51.46941 -0.48470 92 ft 14 kts 181°
2026-05-08 13:20 51.46861 -0.48470 92 ft 8 kts 180°
2026-05-08 13:20 51.46828 -0.48470 92 ft 4 kts 180°
2026-05-08 13:20 51.46780 -0.48470 92 ft 11 kts 182°
2026-05-08 13:20 51.46740 -0.48571 92 ft 13 kts 271°
2026-05-08 13:21 51.46731 -0.48723 92 ft 14 kts 233°
2026-05-08 13:21 51.46634 -0.48750 92 ft 14 kts 186°
2026-05-08 13:21 51.46532 -0.48779 92 ft 15 kts 175°
2026-05-08 13:21 51.46477 -0.48666 92 ft 12 kts 90°
2026-05-08 13:22 51.46478 -0.48423 92 ft 47 kts 90°
2026-05-08 13:22 51.46480 -0.47529 92 ft 111 kts 90°
2026-05-08 13:22 51.46484 -0.46000 100 ft 161 kts 90°
2026-05-08 13:22 51.46507 -0.44228 451 ft 174 kts 90°
2026-05-08 13:23 51.46545 -0.42302 1117 ft 176 kts 91°
2026-05-08 13:23 51.46280 -0.40471 1883 ft 170 kts 121°
2026-05-08 13:23 51.45521 -0.38976 2370 ft 181 kts 133°
2026-05-08 13:23 51.44714 -0.37310 2713 ft 196 kts 126°
2026-05-08 13:24 51.43915 -0.35445 3041 ft 214 kts 128°
2026-05-08 13:24 51.42731 -0.33919 3371 ft 233 kts 162°
2026-05-08 13:24 51.41071 -0.33681 3796 ft 251 kts 180°
2026-05-08 13:24 51.39270 -0.33697 4377 ft 262 kts 180°
2026-05-08 13:25 51.37500 -0.34328 5104 ft 269 kts 206°
2026-05-08 13:25 51.36029 -0.36134 5866 ft 273 kts 223°
2026-05-08 13:25 51.34688 -0.38308 6605 ft 277 kts 224°
2026-05-08 13:25 51.33324 -0.40496 7331 ft 279 kts 223°
2026-05-08 13:26 51.31874 -0.42568 8057 ft 282 kts 216°
2026-05-08 13:26 51.30377 -0.44587 8811 ft 287 kts 229°
2026-05-08 13:26 51.29449 -0.47344 9531 ft 293 kts 254°
2026-05-08 13:26 51.29073 -0.50535 10278 ft 296 kts 259°
2026-05-08 13:27 51.28705 -0.53793 10771 ft 307 kts 257°
2026-05-08 13:27 51.28208 -0.57217 11160 ft 320 kts 254°
2026-05-08 13:27 51.27598 -0.60649 11796 ft 324 kts 252°
2026-05-08 13:27 51.26951 -0.64038 12497 ft 324 kts 252°
2026-05-08 13:28 51.26341 -0.67140 13106 ft 325 kts 249°
2026-05-08 13:28 51.25257 -0.70238 13678 ft 325 kts 225°
2026-05-08 13:28 51.23484 -0.72447 14332 ft 325 kts 213°
2026-05-08 13:28 51.21586 -0.74433 14944 ft 328 kts 213°
2026-05-08 13:29 51.19679 -0.76441 15529 ft 330 kts 213°
2026-05-08 13:29 51.17768 -0.78503 16038 ft 334 kts 214°
2026-05-08 13:29 51.15854 -0.80612 16520 ft 339 kts 214°
2026-05-08 13:29 51.13923 -0.82766 17050 ft 342 kts 215°
2026-05-08 13:30 51.11985 -0.84945 17571 ft 345 kts 215°
2026-05-08 13:30 51.10010 -0.87177 18077 ft 348 kts 215°
2026-05-08 13:30 51.08053 -0.89393 18564 ft 351 kts 215°
2026-05-08 13:30 51.06056 -0.91656 19050 ft 354 kts 215°
2026-05-08 13:31 51.04056 -0.93922 19521 ft 356 kts 215°
2026-05-08 13:31 51.02037 -0.96208 19938 ft 360 kts 215°
2026-05-08 13:31 50.99984 -0.98530 20092 ft 361 kts 216°
2026-05-08 13:31 50.97964 -1.00814 20119 ft 359 kts 216°
2026-05-08 13:32 50.95924 -1.03120 20125 ft 359 kts 216°
2026-05-08 13:32 50.93906 -1.05403 20117 ft 359 kts 216°
2026-05-08 13:32 50.91885 -1.07686 20113 ft 359 kts 216°
2026-05-08 13:32 50.89843 -1.09990 20110 ft 359 kts 216°
2026-05-08 13:33 50.87819 -1.12270 20101 ft 358 kts 216°
2026-05-08 13:33 50.85791 -1.14551 20091 ft 359 kts 216°
2026-05-08 13:33 50.83938 -1.16634 20081 ft 359 kts 216°
2026-05-08 13:33 50.81900 -1.18923 20078 ft 359 kts 216°
2026-05-08 13:34 50.79864 -1.21205 20076 ft 359 kts 216°
2026-05-08 13:34 50.77835 -1.23477 20076 ft 359 kts 216°
2026-05-08 13:34 50.75808 -1.25744 20075 ft 359 kts 216°
2026-05-08 13:34 50.73750 -1.28043 20075 ft 359 kts 216°
2026-05-08 13:35 50.71713 -1.30316 20074 ft 359 kts 216°
2026-05-08 13:35 50.69695 -1.32566 20075 ft 359 kts 216°
2026-05-08 13:35 50.67664 -1.34826 20075 ft 359 kts 216°
2026-05-08 13:35 50.65614 -1.37107 20076 ft 359 kts 216°
2026-05-08 13:36 50.63564 -1.39383 20075 ft 359 kts 216°
2026-05-08 13:36 50.61547 -1.41624 20072 ft 360 kts 216°
2026-05-08 13:36 50.59494 -1.43898 20069 ft 360 kts 216°
2026-05-08 13:36 50.57440 -1.46169 20066 ft 360 kts 216°
2026-05-08 13:37 50.55412 -1.48410 20064 ft 361 kts 216°
2026-05-08 13:37 50.53354 -1.50681 20064 ft 361 kts 216°
2026-05-08 13:37 50.51318 -1.52929 20062 ft 361 kts 216°
2026-05-08 13:37 50.49267 -1.55192 20061 ft 361 kts 216°
2026-05-08 13:38 50.47210 -1.57459 20061 ft 360 kts 216°
2026-05-08 13:38 50.45155 -1.59720 20060 ft 360 kts 216°
2026-05-08 13:38 50.43125 -1.61953 20061 ft 360 kts 216°
2026-05-08 13:38 50.41064 -1.64214 20060 ft 360 kts 216°
2026-05-08 13:39 50.38998 -1.66477 20059 ft 360 kts 215°
2026-05-08 13:39 50.36939 -1.68731 20059 ft 361 kts 215°
2026-05-08 13:39 50.34916 -1.70945 20058 ft 361 kts 215°
2026-05-08 13:39 50.32848 -1.73205 20058 ft 361 kts 215°
2026-05-08 13:40 50.30804 -1.75436 20058 ft 360 kts 216°
2026-05-08 13:40 50.28731 -1.77698 20058 ft 360 kts 216°
2026-05-08 13:40 50.26696 -1.79917 20058 ft 360 kts 216°
2026-05-08 13:40 50.24627 -1.82168 20057 ft 360 kts 216°
2026-05-08 13:41 50.22598 -1.84374 19997 ft 359 kts 216°
2026-05-08 13:41 50.20563 -1.86583 19641 ft 358 kts 216°
2026-05-08 13:41 50.18520 -1.88803 19184 ft 358 kts 216°
2026-05-08 13:41 50.16463 -1.91038 18481 ft 366 kts 216°
2026-05-08 13:42 50.14384 -1.93293 17941 ft 366 kts 216°
2026-05-08 13:42 50.12308 -1.95542 17498 ft 362 kts 215°
2026-05-08 13:42 50.10267 -1.97750 17062 ft 358 kts 215°
2026-05-08 13:42 50.08218 -1.99963 16610 ft 354 kts 215°
2026-05-08 13:43 50.06202 -2.02137 16146 ft 352 kts 214°
2026-05-08 13:43 50.04215 -2.04271 15678 ft 348 kts 214°
2026-05-08 13:43 50.02251 -2.06378 15197 ft 346 kts 214°
2026-05-08 13:43 50.00267 -2.08512 14728 ft 344 kts 215°
2026-05-08 13:44 49.98394 -2.10794 14269 ft 342 kts 221°
2026-05-08 13:44 49.96713 -2.13350 13809 ft 339 kts 227°
2026-05-08 13:44 49.95137 -2.16074 13349 ft 337 kts 228°
2026-05-08 13:44 49.93600 -2.18777 12907 ft 335 kts 228°
2026-05-08 13:45 49.92065 -2.21475 12467 ft 332 kts 228°
2026-05-08 13:45 49.90553 -2.24124 12039 ft 330 kts 228°
2026-05-08 13:45 49.89049 -2.26752 11615 ft 327 kts 228°
2026-05-08 13:45 49.87539 -2.29387 11213 ft 324 kts 228°
2026-05-08 13:46 49.86057 -2.31973 10921 ft 317 kts 228°
2026-05-08 13:46 49.84598 -2.34516 10628 ft 310 kts 228°
2026-05-08 13:46 49.83184 -2.36975 10314 ft 306 kts 227°
2026-05-08 13:46 49.81773 -2.39424 9995 ft 301 kts 227°
2026-05-08 13:47 49.80395 -2.41811 9700 ft 297 kts 227°
2026-05-08 13:47 49.79036 -2.44164 9405 ft 292 kts 227°
2026-05-08 13:47 49.77692 -2.46485 9125 ft 288 kts 227°
2026-05-08 13:47 49.76360 -2.48786 8852 ft 284 kts 227°
2026-05-08 13:48 49.75045 -2.51055 8585 ft 280 kts 227°
2026-05-08 13:48 49.73766 -2.53263 8303 ft 276 kts 227°
2026-05-08 13:48 49.72486 -2.55471 7964 ft 275 kts 227°
2026-05-08 13:48 49.71217 -2.57641 7619 ft 274 kts 224°
2026-05-08 13:49 49.69793 -2.59534 7286 ft 272 kts 214°
2026-05-08 13:49 49.68179 -2.61057 6954 ft 270 kts 208°
2026-05-08 13:49 49.66538 -2.62450 6619 ft 269 kts 207°
2026-05-08 13:49 49.64903 -2.63815 6293 ft 268 kts 207°
2026-05-08 13:50 49.63272 -2.65176 5971 ft 266 kts 207°
2026-05-08 13:50 49.61643 -2.66547 5647 ft 266 kts 207°
2026-05-08 13:50 49.60034 -2.67903 5344 ft 264 kts 207°
2026-05-08 13:50 49.58429 -2.69256 5038 ft 263 kts 206°
2026-05-08 13:51 49.56833 -2.70597 4767 ft 261 kts 206°
2026-05-08 13:51 49.55264 -2.71919 4564 ft 255 kts 206°
2026-05-08 13:51 49.53717 -2.73213 4367 ft 250 kts 206°
2026-05-08 13:51 49.52196 -2.74488 4176 ft 245 kts 206°
2026-05-08 13:52 49.50731 -2.75722 3964 ft 241 kts 206°
2026-05-08 13:52 49.49327 -2.77093 3729 ft 241 kts 222°
2026-05-08 13:52 49.48347 -2.79155 3501 ft 236 kts 237°
2026-05-08 13:52 49.47561 -2.81343 3275 ft 230 kts 239°
2026-05-08 13:53 49.46825 -2.83506 2969 ft 228 kts 240°
2026-05-08 13:53 49.46059 -2.85591 2614 ft 227 kts 229°
2026-05-08 13:53 49.44821 -2.87002 2233 ft 221 kts 194°
2026-05-08 13:53 49.43349 -2.87064 2006 ft 205 kts 157°
2026-05-08 13:54 49.42285 -2.85888 1992 ft 183 kts 121°
2026-05-08 13:54 49.42015 -2.84075 2057 ft 177 kts 84°
2026-05-08 13:54 49.42350 -2.82256 2032 ft 177 kts 73°
2026-05-08 13:54 49.42682 -2.80479 1995 ft 168 kts 79°
2026-05-08 13:55 49.42869 -2.78793 2004 ft 157 kts 84°
2026-05-08 13:55 49.43002 -2.77141 2002 ft 156 kts 85°
2026-05-08 13:55 49.43136 -2.73846 1904 ft 146 kts 89°
2026-05-08 13:56 49.43169 -2.72428 1727 ft 134 kts 89°
2026-05-08 13:56 49.43204 -2.71013 1538 ft 131 kts 89°
2026-05-08 13:56 49.43240 -2.69607 1362 ft 131 kts 89°
2026-05-08 13:56 49.43278 -2.68222 1190 ft 130 kts 89°
2026-05-08 13:57 49.43315 -2.66825 1012 ft 130 kts 88°
2026-05-08 13:57 49.43351 -2.65444 837 ft 130 kts 88°
2026-05-08 13:57 49.43385 -2.64066 676 ft 129 kts 87°
2026-05-08 13:57 49.43424 -2.62679 493 ft 129 kts 87°
2026-05-08 13:58 49.43460 -2.61307 337 ft 129 kts 86°
2026-05-08 13:58 49.43496 -2.60066 324 ft 81 kts 86°
2026-05-08 13:58 49.43513 -2.59484 334 ft 43 kts 87°
2026-05-08 13:58 49.43512 -2.59228 334 ft 8 kts 124°
2026-05-08 13:59 49.43454 -2.59201 334 ft 9 kts 178°
2026-05-08 13:59 49.43400 -2.59200 334 ft 7 kts 186°
2026-05-08 13:59 49.43372 -2.59258 334 ft 8 kts 268°
2026-05-08 13:59 49.43370 -2.59359 333 ft 10 kts 267°
2026-05-08 14:00 49.43366 -2.59479 332 ft 12 kts 267°
2026-05-08 14:00 49.43363 -2.59585 331 ft 8 kts 267°
2026-05-08 14:00 49.43362 -2.59612 331 ft 1 kts 268°
2026-05-08 14:00 49.43362 -2.59623 331 ft 2 kts 268°
2026-05-08 14:01 49.43350 -2.59647 330 ft 5 kts 205°
2026-05-08 14:01 49.43310 -2.59650 330 ft 4 kts 178°
2026-05-08 14:01 49.43283 -2.59649 330 ft 2 kts 179°
2026-05-08 14:01 49.43273 -2.59649 330 ft 0 kts 179°
2026-05-08 14:02 49.43267 -2.59649 330 ft 0 kts 179°
2026-05-08 14:02 49.43263 -2.59649 330 ft 0 kts 178°